• In Hungary
  • List of Countries
  • For 7 days
  • Water Temperature
  • Satellite Maps
  • Weather Map
  • News
  • Weather Widgets
  • user-avatar
    Login

    Hourly Weather Tienen

    Today, 16 December, Saturday

    Time Temperature Precipitation Wind Pressure Humidity
    00:00 +2°C° 0 mm 1 mps 748 mmHg 96%
    01:00 +2°C° 0 mm 1 mps 749 mmHg 95%
    02:00 +2°C° 0 mm 1 mps 749 mmHg 95%
    03:00 +1°C° 0 mm 2 mps 750 mmHg 95%
    04:00 +1°C° 0 mm 2 mps 750 mmHg 95%
    05:00 +1°C° 0 mm 2 mps 751 mmHg 94%
    06:00 +1°C° 0 mm 2 mps 752 mmHg 94%
    07:00 +2°C° 0.1 mm 2 mps 753 mmHg 92%
    08:00 +2°C° 0.1 mm 2 mps 753 mmHg 91%
    09:00 +2°C° 0.1 mm 3 mps 754 mmHg 89%
    10:00 +2°C° 0.2 mm 3 mps 754 mmHg 85%
    11:00 +3°C° 0.2 mm 4 mps 755 mmHg 81%
    12:00 +4°C° 0.2 mm 4 mps 755 mmHg 77%
    13:00 +4°C° 0.3 mm 4 mps 755 mmHg 78%
    14:00 +3°C° 0.3 mm 4 mps 756 mmHg 80%
    15:00 +3°C° 0.3 mm 4 mps 756 mmHg 82%
    16:00 +3°C° 0.3 mm 4 mps 757 mmHg 84%
    17:00 +1°C° 0.3 mm 4 mps 757 mmHg 86%
    18:00 +1°C° 0.3 mm 4 mps 758 mmHg 89%
    19:00 +1°C° 0.2 mm 4 mps 758 mmHg 89%
    20:00 0°C° 0.2 mm 4 mps 759 mmHg 89%
    21:00 0°C° 0.2 mm 4 mps 759 mmHg 89%
    22:00 +1°C° 0.1 mm 3 mps 759 mmHg 89%
    23:00 0°C° 0.1 mm 3 mps 760 mmHg 89%

    Tomorrow, 17 December, Sunday

    Time Temperature Precipitation Wind Pressure Humidity
    00:00 0°C° 0.1 mm 3 mps 760 mmHg 89%
    01:00 0°C° 0.1 mm 3 mps 760 mmHg 90%
    02:00 0°C° 0.1 mm 3 mps 760 mmHg 90%
    03:00 0°C° 0.1 mm 3 mps 761 mmHg 90%
    04:00 0°C° 0.1 mm 3 mps 761 mmHg 91%
    05:00 0°C° 0.1 mm 3 mps 761 mmHg 92%
    06:00 0°C° 0.1 mm 3 mps 762 mmHg 93%
    07:00 0°C° 0.1 mm 3 mps 762 mmHg 92%
    08:00 +1°C° 0.1 mm 3 mps 763 mmHg 92%
    09:00 +1°C° 0.1 mm 3 mps 763 mmHg 92%
    10:00 +2°C° 0.1 mm 3 mps 763 mmHg 90%
    11:00 +3°C° 0.1 mm 3 mps 764 mmHg 88%
    12:00 +4°C° 0.1 mm 3 mps 764 mmHg 85%
    13:00 +4°C° 0 mm 3 mps 764 mmHg 86%
    14:00 +3°C° 0 mm 3 mps 764 mmHg 86%
    15:00 +3°C° 0 mm 3 mps 764 mmHg 87%
    16:00 +2°C° 0 mm 3 mps 764 mmHg 86%
    17:00 +1°C° 0 mm 4 mps 764 mmHg 85%
    18:00 0°C° 0 mm 4 mps 764 mmHg 84%
    19:00 +1°C° 0.4 mm 5 mps 764 mmHg 84%
    20:00 +1°C° 0.4 mm 5 mps 764 mmHg 84%
    21:00 +1°C° 0.4 mm 6 mps 763 mmHg 84%
    22:00 +1°C° 1 mm 6 mps 763 mmHg 86%
    23:00 +2°C° 1 mm 7 mps 762 mmHg 88%

    Day after tomorrow, 18 December, Monday

    Time Temperature Precipitation Wind Pressure Humidity
    00:00 +2°C° 1 mm 7 mps 762 mmHg 91%
    01:00 +3°C° 0.5 mm 6 mps 761 mmHg 92%
    02:00 +3°C° 0.5 mm 5 mps 761 mmHg 94%
    03:00 +5°C° 0.5 mm 5 mps 761 mmHg 95%
    04:00 +5°C° 0.1 mm 4 mps 761 mmHg 94%
    05:00 +5°C° 0.1 mm 4 mps 761 mmHg 93%
    06:00 +4°C° 0.1 mm 4 mps 762 mmHg 92%
    07:00 +4°C° 0 mm 3 mps 762 mmHg 90%
    08:00 +4°C° 0 mm 3 mps 763 mmHg 89%
    09:00 +3°C° 0 mm 3 mps 764 mmHg 87%
    10:00 +4°C° 0.1 mm 3 mps 764 mmHg 85%
    11:00 +5°C° 0.1 mm 4 mps 764 mmHg 82%
    12:00 +6°C° 0.1 mm 4 mps 765 mmHg 79%
    13:00 +6°C° 0.1 mm 4 mps 765 mmHg 81%
    14:00 +5°C° 0.1 mm 3 mps 765 mmHg 83%
    15:00 +5°C° 0.1 mm 3 mps 766 mmHg 85%
    16:00 +6°C° 0 mm 2 mps 766 mmHg 86%
    17:00 +5°C° 0 mm 2 mps 767 mmHg 88%
    18:00 +5°C° 0 mm 2 mps 768 mmHg 90%
    19:00 +4°C° 0 mm 2 mps 768 mmHg 90%
    20:00 +5°C° 0 mm 1 mps 769 mmHg 90%
    21:00 +5°C° 0 mm 1 mps 769 mmHg 90%
    22:00 +4°C° 0 mm 1 mps 769 mmHg 91%
    23:00 +4°C° 0 mm 1 mps 770 mmHg 91%

    19 December, Tuesday

    Time Temperature Precipitation Wind Pressure Humidity
    00:00 +4°C° 0 mm 1 mps 770 mmHg 92%
    01:00 +4°C° 0 mm 1 mps 770 mmHg 92%
    02:00 +3°C° 0 mm 1 mps 770 mmHg 93%
    03:00 +3°C° 0 mm 1 mps 771 mmHg 94%
    04:00 +3°C° 0 mm 1 mps 771 mmHg 94%
    05:00 +3°C° 0 mm 1 mps 771 mmHg 94%
    06:00 +3°C° 0 mm 1 mps 772 mmHg 95%
    07:00 +2°C° 0 mm 2 mps 772 mmHg 95%
    08:00 +2°C° 0 mm 2 mps 772 mmHg 95%
    09:00 +3°C° 0 mm 2 mps 772 mmHg 95%
    10:00 +4°C° 0 mm 2 mps 772 mmHg 92%
    11:00 +4°C° 0 mm 3 mps 772 mmHg 89%
    12:00 +5°C° 0 mm 3 mps 772 mmHg 85%
    13:00 +4°C° 0 mm 3 mps 772 mmHg 87%
    14:00 +5°C° 0 mm 2 mps 772 mmHg 89%
    15:00 +5°C° 0 mm 2 mps 772 mmHg 90%
    16:00 +4°C° 0 mm 2 mps 772 mmHg 91%
    17:00 +3°C° 0 mm 3 mps 772 mmHg 91%
    18:00 +2°C° 0 mm 3 mps 772 mmHg 92%
    19:00 +2°C° 0 mm 3 mps 773 mmHg 91%
    20:00 +2°C° 0 mm 3 mps 773 mmHg 89%
    21:00 +3°C° 0 mm 4 mps 773 mmHg 88%
    22:00 +3°C° 0.1 mm 4 mps 773 mmHg 88%
    23:00 +3°C° 0.1 mm 4 mps 773 mmHg 89%

    20 December, Wednesday

    Time Temperature Precipitation Wind Pressure Humidity
    00:00 +3°C° 0.1 mm 4 mps 773 mmHg 89%
    01:00 +4°C° 0.1 mm 4 mps 772 mmHg 90%
    02:00 +4°C° 0.1 mm 4 mps 772 mmHg 91%
    03:00 +4°C° 0.1 mm 4 mps 772 mmHg 92%
    04:00 +4°C° 0.1 mm 4 mps 772 mmHg 93%
    05:00 +4°C° 0.1 mm 3 mps 772 mmHg 94%
    06:00 +5°C° 0.1 mm 3 mps 772 mmHg 95%
    07:00 +5°C° 0 mm 3 mps 772 mmHg 96%
    08:00 +5°C° 0 mm 3 mps 773 mmHg 96%
    09:00 +7°C° 0 mm 3 mps 773 mmHg 96%
    10:00 +7°C° 0 mm 3 mps 773 mmHg 96%
    11:00 +8°C° 0 mm 3 mps 773 mmHg 96%
    12:00 +8°C° 0 mm 3 mps 772 mmHg 96%
    13:00 +8°C° 0.1 mm 3 mps 772 mmHg 96%
    14:00 +8°C° 0.1 mm 3 mps 772 mmHg 97%
    15:00 +9°C° 0.1 mm 3 mps 772 mmHg 97%
    16:00 +9°C° 0.1 mm 3 mps 772 mmHg 97%
    17:00 +9°C° 0.1 mm 3 mps 772 mmHg 97%
    18:00 +9°C° 0.1 mm 3 mps 773 mmHg 97%
    19:00 +9°C° 0 mm 3 mps 773 mmHg 97%
    20:00 +9°C° 0 mm 3 mps 773 mmHg 97%
    21:00 +9°C° 0 mm 3 mps 773 mmHg 97%
    22:00 +9°C° 0 mm 3 mps 773 mmHg 97%
    23:00 +8°C° 0 mm 4 mps 773 mmHg 97%

    21 December, Thursday

    Time Temperature Precipitation Wind Pressure Humidity
    00:00 +10°C° 0 mm 4 mps 773 mmHg 97%
    01:00 +10°C° 0 mm 4 mps 773 mmHg 96%
    02:00 +10°C° 0 mm 4 mps 772 mmHg 96%
    03:00 +10°C° 0 mm 4 mps 772 mmHg 96%
    04:00 +10°C° 0 mm 4 mps 772 mmHg 95%
    05:00 +10°C° 0 mm 4 mps 772 mmHg 95%
    06:00 +9°C° 0 mm 5 mps 772 mmHg 94%
    07:00 +9°C° 0 mm 5 mps 772 mmHg 93%
    08:00 +9°C° 0 mm 5 mps 772 mmHg 92%
    09:00 +9°C° 0 mm 5 mps 772 mmHg 92%
    10:00 +9°C° 0 mm 5 mps 772 mmHg 91%
    11:00 +9°C° 0 mm 5 mps 772 mmHg 90%
    12:00 +9°C° 0 mm 5 mps 771 mmHg 89%
    13:00 +9°C° 0 mm 5 mps 771 mmHg 88%
    14:00 +9°C° 0 mm 5 mps 771 mmHg 88%
    15:00 +9°C° 0 mm 5 mps 771 mmHg 88%
    16:00 +9°C° 0.1 mm 5 mps 771 mmHg 89%
    17:00 +9°C° 0.1 mm 5 mps 771 mmHg 90%
    18:00 +9°C° 0.1 mm 5 mps 771 mmHg 90%
    19:00 +9°C° 0.4 mm 5 mps 771 mmHg 91%
    20:00 +9°C° 0.4 mm 5 mps 771 mmHg 92%
    21:00 +10°C° 0.4 mm 4 mps 771 mmHg 93%
    22:00 +8°C° 0.3 mm 4 mps 771 mmHg 93%
    23:00 +8°C° 0.3 mm 4 mps 772 mmHg 93%
    Show more